2022/12/31 00:00:00,24.1, 0.4
2022/12/31 00:10:00,24.1, 0.5
2022/12/31 00:20:00,24.1, 0.4
2022/12/31 00:30:00,24.1, 0.4
2022/12/31 00:40:00,24.1, 0.3
2022/12/31 00:50:00,24.1, 0.4
2022/12/31 01:00:00,24.1, 0.3
2022/12/31 01:10:00,24.1, 0.5
2022/12/31 01:20:00,24.1, 0.2
2022/12/31 01:30:00,24.1, 0.5
2022/12/31 01:40:00,24.1, 0.7
2022/12/31 01:50:00,24.1, 0.3
2022/12/31 02:00:00,24.1, 0.4
2022/12/31 02:10:00,24.1, 0.2
2022/12/31 02:20:00,24.1, 0.3
2022/12/31 02:30:00,24.0, 0.2
2022/12/31 02:40:00,24.1,-0.1
2022/12/31 02:50:00,24.1, 0.3
2022/12/31 03:00:00,24.1, 0.2
2022/12/31 03:10:00,24.0, 0.3
2022/12/31 03:20:00,24.1, 0.1
2022/12/31 03:30:00,24.1, 0.3
2022/12/31 03:40:00,24.1, 0.3
2022/12/31 03:50:00,24.1, 0.2
2022/12/31 04:00:00,24.1, 0.3
2022/12/31 04:10:00,24.1, 0.5
2022/12/31 04:20:00,24.1, 0.4
2022/12/31 04:30:00,24.1, 0.3
2022/12/31 04:40:00,24.1, 0.4
2022/12/31 04:50:00,24.0, 0.3
2022/12/31 05:00:00,24.0, 0.6
2022/12/31 05:10:00,24.0, 0.4
2022/12/31 05:20:00,24.0, 0.6
2022/12/31 05:30:00,24.0, 0.3
2022/12/31 05:40:00,24.0,-0.2
2022/12/31 05:50:00,24.0,-0.1
2022/12/31 06:00:00,24.0, 0.5
2022/12/31 06:10:00,24.0, 0.2
2022/12/31 06:20:00,23.9, 0.6
2022/12/31 06:30:00,23.9, 0.3
2022/12/31 06:40:00,23.9, 0.1
2022/12/31 06:50:00,24.0, 0.1
2022/12/31 07:00:00,23.9, 0.2
2022/12/31 07:10:00,23.9, 0.3
2022/12/31 07:20:00,23.9, 0.1
2022/12/31 07:30:00,23.9, 0.1
2022/12/31 07:40:00,23.9, 0.2
2022/12/31 07:50:00,23.9, 0.5
2022/12/31 08:00:00,23.9, 0.9
2022/12/31 08:10:00,23.9, 0.9
2022/12/31 08:20:00,23.9, 1.3
2022/12/31 08:30:00,24.0, 1.7
2022/12/31 08:40:00,24.1, 1.9
2022/12/31 08:50:00,24.0, 2.3
2022/12/31 09:00:00,24.0, 3.4
2022/12/31 09:10:00,23.9, 3.8
2022/12/31 09:20:00,23.8, 4.1
2022/12/31 09:30:00,23.8, 4.2
2022/12/31 09:40:00,23.7, 4.7
2022/12/31 09:50:00,23.6, 5.2
2022/12/31 10:00:00,23.7, 4.9
2022/12/31 10:10:00,23.7, 5.7
2022/12/31 10:20:00,23.7, 7.2
2022/12/31 10:30:00,23.8, 8.7
2022/12/31 10:40:00,23.7, 7.4
2022/12/31 10:50:00,23.7, 7.9
2022/12/31 11:00:00,23.9, 7.1
2022/12/31 11:10:00,23.8, 7.2
2022/12/31 11:20:00,23.9, 7.6
2022/12/31 11:30:00,23.9, 8.1
2022/12/31 11:40:00,23.7, 6.3
2022/12/31 11:50:00,23.7, 6.3
2022/12/31 12:00:00,23.5, 7.1
2022/12/31 12:10:00,23.4, 7.0
2022/12/31 12:20:00,23.4, 6.9
2022/12/31 12:30:00,23.2, 6.9
2022/12/31 12:40:00,23.2, 7.3
2022/12/31 12:50:00,23.2, 7.4
2022/12/31 13:00:00,23.0, 6.8
2022/12/31 13:10:00,22.7, 7.6
2022/12/31 13:20:00,22.6, 9.1
2022/12/31 13:30:00,22.5, 7.0
2022/12/31 13:40:00,22.5, 7.5
2022/12/31 13:50:00,22.4, 5.9
2022/12/31 14:00:00,22.2, 5.2
2022/12/31 14:10:00,22.1, 5.5
2022/12/31 14:20:00,22.0, 5.3
2022/12/31 14:30:00,22.0, 4.7
2022/12/31 14:40:00,22.0, 7.3
2022/12/31 14:50:00,21.9,12.5
2022/12/31 15:00:00,21.8,13.9
2022/12/31 15:10:00,21.7, 7.7
2022/12/31 15:20:00,21.8, 5.7
2022/12/31 15:30:00,21.7, 4.9
2022/12/31 15:40:00,21.7, 4.3
2022/12/31 15:50:00,21.7, 4.3
2022/12/31 16:00:00,21.6, 4.9
2022/12/31 16:10:00,21.5, 4.3
2022/12/31 16:20:00,21.4, 3.8
2022/12/31 16:30:00,21.5, 3.4
2022/12/31 16:40:00,21.4, 3.4
2022/12/31 16:50:00,21.3, 3.0
2022/12/31 17:00:00,21.3, 2.6
2022/12/31 17:10:00,21.2, 2.1
2022/12/31 17:20:00,21.3, 1.7
2022/12/31 17:30:00,21.3, 0.9
2022/12/31 17:40:00,21.3, 0.8
2022/12/31 17:50:00,21.2, 0.6
2022/12/31 18:00:00,21.2, 1.0
2022/12/31 18:10:00,21.2, 0.6
2022/12/31 18:20:00,21.2, 0.8
2022/12/31 18:30:00,21.2, 0.6
2022/12/31 18:40:00,21.2, 1.0
2022/12/31 18:50:00,21.2, 1.5
2022/12/31 19:00:00,21.2, 1.2
2022/12/31 19:10:00,21.2, 1.1
2022/12/31 19:20:00,21.2, 1.1
2022/12/31 19:30:00,21.2, 1.0
2022/12/31 19:40:00,21.2, 1.1
2022/12/31 19:50:00,21.2, 1.1
2022/12/31 20:00:00,21.2, 0.9
2022/12/31 20:10:00,21.2, 1.0
2022/12/31 20:20:00,21.1, 1.0
2022/12/31 20:30:00,21.1, 1.1
2022/12/31 20:40:00,21.1, 1.3
2022/12/31 20:50:00,21.1, 1.4
2022/12/31 21:00:00,21.1, 0.9
2022/12/31 21:10:00,21.1, 1.0
2022/12/31 21:20:00,21.1, 1.0
2022/12/31 21:30:00,21.1, 1.0
2022/12/31 21:40:00,21.0, 0.9
2022/12/31 21:50:00,21.0, 0.9
2022/12/31 22:00:00,21.0, 0.4
2022/12/31 22:10:00,21.1, 0.9
2022/12/31 22:20:00,21.1, 0.9
2022/12/31 22:30:00,21.0, 1.4
2022/12/31 22:40:00,21.0, 1.0
2022/12/31 22:50:00,21.0, 1.1
2022/12/31 23:00:00,21.0, 1.2
2022/12/31 23:10:00,21.0, 0.8
2022/12/31 23:20:00,21.0, 1.4
2022/12/31 23:30:00,21.0, 1.0
2022/12/31 23:40:00,21.0, 1.2
2022/12/31 23:50:00,21.0, 1.4
